Weather History for Juneau, AK

Change the Weather History Date:

Monday, May 19, 2014

  Actual Average Record
Temperature  
Mean Temperature 50 °F 49 °F  
Max Temperature 52 °F 57 °F 74 °F (1993)
Min Temperature 47 °F 42 °F 28 °F (1965)
Degree Days  
Heating Degree Days 15 16  
Month to date heating degree days 219 341  
Since 1 July heating degree days 7603 7869  
Cooling Degree Days 0 0  
Month to date cooling degree days 0 0  
Year to date cooling degree days 0 0  
Moisture  
Dew Point 45 °F    
Average Humidity 85    
Maximum Humidity 93    
Minimum Humidity 77    
Precipitation  
Precipitation 0.45 in 0.11 in 1.14 in (1972)
Month to date precipitation 1.03 2.05  
Year to date precipitation 19.28 18.25  
Sea Level Pressure  
Sea Level Pressure 29.76 in    
Wind  
Wind Speed 16 mph (ESE)    
Max Wind Speed 26 mph    
Max Gust Speed 33 mph    
Visibility 8 miles    
Events Rain    
T = Trace of Precipitation, MM = Missing Value Source: NWS Daily Summary

Daily Weather History Graph

Daily Weather History Graph

Search for Another Location

Airport:

Trip Planner

Search our weather history database for the weather conditions in past years. The results will help you decide how hot, cold, wet, or windy it might be!

Date:

Astronomy

May. 19, 2014 Rise Set
Actual Time 4:23 AM AKDT 9:27 PM AKDT
Civil Twilight 3:23 AM AKDT 10:27 PM AKDT
Nautical Twilight 1:27 AM AKDT 12:22 AM AKDT
Astronomical Twilight Sun does not rise Sun does not rise
Moon 12:57 AM AKDT (5/19) 9:55 AM AKDT (5/19)
Length of Visible Light 19h 04m
Length of Day
17h 04m
Waning Gibbous, 69% of the Moon is Illuminated
May 19
Waning Gibbous
May 21
Last Quarter
May 28
New
Jun 5
First Quarter
Jun 12
Full

Hourly Weather History & Observations

Time (AKDT) Temp. Dew Point Humidity Pressure Visibility Wind Dir Wind Speed Gust Speed Precip Events Conditions
12:53 AM 52.0 °F 44.1 °F 74% 29.76 in 10.0 mi Calm Calm - N/A   Overcast
1:53 AM 52.0 °F 46.0 °F 80% 29.75 in 10.0 mi East 6.9 mph - N/A   Overcast
2:01 AM 52.0 °F 45.0 °F 77% 29.74 in 10.0 mi East 8.1 mph - N/A   Overcast
2:53 AM 51.1 °F 46.9 °F 86% 29.74 in 8.0 mi SE 12.7 mph 20.7 mph 0.01 in Rain Light Rain
3:53 AM 50.0 °F 46.0 °F 86% 29.74 in 5.0 mi ESE 20.7 mph 25.3 mph 0.02 in Rain Light Rain
4:04 AM 50.0 °F 46.0 °F 86% 29.73 in 5.0 mi ESE 20.7 mph 28.8 mph 0.00 in Rain Light Rain
5:53 AM 48.9 °F 45.0 °F 86% 29.73 in 10.0 mi ESE 18.4 mph - 0.01 in   Overcast
6:53 AM 48.9 °F 44.1 °F 83% 29.73 in 10.0 mi ESE 16.1 mph 27.6 mph N/A   Overcast
7:53 AM 50.0 °F 44.1 °F 80% 29.73 in 10.0 mi ESE 18.4 mph - N/A   Overcast
8:53 AM 48.9 °F 44.1 °F 83% 29.73 in 7.0 mi East 12.7 mph - 0.00 in Rain Light Rain
9:53 AM 50.0 °F 44.1 °F 80% 29.72 in 10.0 mi ESE 18.4 mph 28.8 mph 0.01 in Rain Light Rain
10:53 AM 50.0 °F 44.1 °F 80% 29.73 in 8.0 mi ESE 19.6 mph - 0.00 in Rain Light Rain
11:53 AM 48.9 °F 44.1 °F 83% 29.73 in 7.0 mi SE 21.9 mph 29.9 mph 0.01 in Rain Light Rain
12:53 PM 48.0 °F 44.1 °F 86% 29.75 in 4.0 mi ESE 19.6 mph 26.5 mph 0.05 in Rain Light Rain
1:53 PM 48.0 °F 44.1 °F 86% 29.77 in 5.0 mi ESE 17.3 mph - 0.10 in Rain Rain
2:13 PM 48.0 °F 45.0 °F 89% 29.77 in 5.0 mi ESE 13.8 mph - 0.04 in Rain Light Rain
2:53 PM 48.9 °F 45.0 °F 86% 29.76 in 10.0 mi ESE 13.8 mph - 0.05 in Rain Light Rain
3:53 PM 48.9 °F 44.1 °F 83% 29.76 in 6.0 mi ESE 18.4 mph - 0.01 in Rain Light Rain
4:53 PM 48.9 °F 45.0 °F 86% 29.76 in 10.0 mi ESE 18.4 mph - 0.04 in Rain Light Rain
5:53 PM 48.9 °F 45.0 °F 86% 29.76 in 10.0 mi ESE 16.1 mph 24.2 mph 0.00 in Rain Light Rain
6:53 PM 48.0 °F 45.0 °F 89% 29.77 in 5.0 mi ESE 12.7 mph - 0.03 in Rain Light Rain
7:53 PM 48.0 °F 45.0 °F 89% 29.78 in 4.0 mi ESE 16.1 mph - 0.04 in Rain Light Rain
8:53 PM 48.0 °F 45.0 °F 89% 29.79 in 6.0 mi ESE 13.8 mph - 0.01 in Rain Light Rain
9:53 PM 48.0 °F 45.0 °F 89% 29.80 in 10.0 mi ESE 8.1 mph - 0.01 in Rain Light Rain
10:20 PM 48.0 °F 45.0 °F 89% 29.80 in 7.0 mi ESE 12.7 mph - 0.01 in Rain Light Rain
10:53 PM 48.0 °F 45.0 °F 89% 29.81 in 10.0 mi ESE 12.7 mph - 0.03 in Rain Light Rain
11:53 PM 46.9 °F 44.1 °F 90% 29.82 in 10.0 mi ESE 16.1 mph - 0.02 in Rain Light Rain